Location: Unspecified
(0.0000°N, 0.0000°E)
Time: 06:52:20
(UTC+00:00)

A-11 Canister half - Pass Details

Date: 27 November 2019
Orbit: 1515 x 1685 km, 47.2° (Epoch: 11 December)

Event Time Altitude Azimuth Distance (km) Brightness Sun altitude
Rises 23:27:15 0° 331° (NNW) 4,905 - -68.2°
Reaches altitude 10° 23:30:36 10° 336° (NNW) 3,905 - -68.4°
Maximum altitude 23:40:11 51° 50° (NE) 1,971 - -68.7°
Drops below altitude 10° 23:49:26 10° 123° (ESE) 3,791 - -68.8°
Sets 23:52:36 0° 128° (SE) 4,754 - -68.8°
